Flag for U.S.A. Weather past 2 weeks in New Salem, North Dakota, U.S.A.

Now
31 °F

Low clouds.


Feels Like: 21 °F
Forecast: 26 / 30 °F
Wind: 13 mph from North

Location: Bismarck Municipal Airport

Current Time: Dec 22, 2014 at 2:22:45 PM

Latest Report: Dec 22, 2014 at 1:52 PM


Visibility: 10 mi

Pressure: 29.57 "Hg

Humidity: 92%

Dew point: 29 °F

Location of New SalemLocation

Historic Weather in New Salem — Graph

°F

New Salem temperature yesterday

Maximum temperature yesterday: 38 °F (at 1:52 PM)
Minimum temperature yesterday: 12 °F (at 3:52 AM)
Average temperature yesterday: 26 °F

Past Weeks' High & Low Weather Summary

 TemperatureHumidityPressure
High48 °F (Dec 12, 2:52 PM)100% (Dec 11, 9:00 PM)30.49 "Hg (Dec 11, 9:00 PM)
Low9 °F (Dec 9, 12:52 AM)56% (Dec 12, 2:52 PM)29.44 "Hg (Dec 22, 2:02 AM)
Average25 °F87%30.05 "Hg
* Reported Dec 7 12:52 PM — Dec 22 12:52 PM, New Salem, Weather by CustomWeather, © 2014

Note: Actual official high and low records may vary slightly from our data, if they occured in-between our weather recording intervals... More about our weather records

Advertising

New Salem weather history for previous 24 hours

 ConditionsComfort  
Time TempWeatherWind HumidityBarometerVisibility
12:52 PM
Dec 22
30 °FLow clouds.10 mph92%29.56 "Hg9 mi
11:52 AM29 °FLow clouds.6 mph93%29.56 "Hg10 mi
10:52 AM29 °FIce fog.8 mph96%29.56 "Hg6 mi
10:02 AM29 °FIce fog.7 mph96%29.50 "Hg2 mi
9:52 AM29 °FIce fog.6 mph96%29.55 "Hg1 mi
8:54 AM28 °FIce fog.3 mph100%29.48 "Hg1 mi
7:52 AM28 °FIce fog.No wind100%29.52 "Hg1 mi
6:59 AM28 °FIce fog.No wind100%29.46 "Hg1 mi
5:56 AM28 °FIce fog.No wind100%29.45 "Hg0 mi
4:52 AM28 °FIce fog.5 mph100%29.50 "Hg1 mi
3:52 AM28 °FIce fog.6 mph100%29.49 "Hg1 mi
2:52 AM28 °FIce fog.5 mph100%29.50 "Hg2 mi
2:02 AM28 °FIce fog.6 mph100%29.44 "Hg2 mi
1:52 AM28 °FIce fog.5 mph100%29.49 "Hg3 mi
12:52 AM28 °FIce fog.6 mph100%29.50 "Hg3 mi
11:52 PM
Dec 21
28 °FIce fog.7 mph100%29.50 "Hg5 mi
10:52 PM29 °FIce fog.8 mph96%29.50 "Hg3 mi
9:52 PM29 °FIce fog.10 mph100%29.52 "Hg4 mi
8:52 PM29 °FIce fog.7 mph100%29.52 "Hg2 mi
7:52 PM30 °FIce fog.12 mph96%29.53 "Hg6 mi
6:52 PM30 °FLow clouds.12 mph96%29.52 "Hg7 mi
5:52 PM29 °FClear.10 mph93%29.51 "Hg10 mi
4:52 PM29 °FSunny.7 mph85%29.50 "Hg10 mi
3:52 PM37 °FSunny.8 mph70%29.50 "Hg10 mi
2:52 PM38 °FSunny.8 mph70%29.49 "Hg10 mi
Weather by CustomWeather, © 2014

See weather overviewHow to use our weather pages